Flag for U.S.A. Weather past 2 weeks in Winston-Salem, North Carolina, U.S.A.

Now
43 °F

Overcast.


Feels Like: 38 °F
Forecast: 27 / 43 °F
Wind: 9 mph from South

Location: Smith Reynolds Airport

Current Time: Jan 29, 2015 at 10:21:14 PM

Latest Report: Jan 29, 2015 at 9:54 PM


Visibility: 10 mi

Pressure: 30.04 "Hg

Humidity: 47%

Dew point: 24 °F

Location of Winston-SalemLocation

Historic Weather in Winston-Salem — Graph

°F

Winston-Salem temperature yesterday

Maximum temperature yesterday: 45 °F (at 3:54 PM)
Minimum temperature yesterday: 25 °F (at 5:54 AM)
Average temperature yesterday: 33 °F

Past Weeks' High & Low Weather Summary

 TemperatureHumidityPressure
High65 °F (Jan 20, 2:54 PM)100% (Jan 15, 9:54 AM)30.36 "Hg (Jan 15, 9:54 AM)
Low25 °F (Jan 15, 5:54 AM)15% (Jan 27, 8:54 PM)29.57 "Hg (Jan 24, 8:02 AM)
Average41 °F58%30.02 "Hg
* Reported Jan 14 8:54 PM — Jan 29 8:54 PM, Winston-Salem, Weather by CustomWeather, © 2014

Note: Actual official high and low records may vary slightly from our data, if they occured in-between our weather recording intervals... More about our weather records

Advertising

Winston-Salem weather history for previous 24 hours

 ConditionsComfort  
Time TempWeatherWind HumidityBarometerVisibility
8:54 PM
Jan 29
41 °FOvercast.3 mph51%30.08 "Hg10 mi
7:54 PM40 °FClear.3 mph51%30.09 "Hg10 mi
6:54 PM43 °FClear.6 mph43%30.09 "Hg10 mi
5:54 PM44 °FClear.5 mph40%30.10 "Hg10 mi
4:54 PM46 °FSunny.9 mph37%30.10 "Hg10 mi
3:54 PM47 °FPartly sunny.10 mph37%30.11 "Hg10 mi
2:54 PM44 °FOvercast.9 mph43%30.13 "Hg10 mi
1:54 PM45 °FLight rain. More clouds than sun.12 mph35%30.18 "Hg10 mi
12:54 PM46 °FSunny.10 mph35%30.20 "Hg10 mi
11:54 AM44 °FSunny.10 mph38%30.25 "Hg10 mi
10:54 AM41 °FSunny.8 mph43%30.29 "Hg10 mi
9:54 AM38 °FSunny.7 mph46%30.31 "Hg10 mi
8:54 AM33 °FSunny.3 mph56%30.32 "Hg10 mi
7:54 AM26 °FSunny.No wind66%30.34 "Hg10 mi
6:54 AM25 °FClear.No wind66%30.32 "Hg10 mi
5:54 AM27 °FClear.No wind53%30.32 "Hg10 mi
4:54 AM27 °FClear.No wind49%30.32 "Hg10 mi
3:54 AM30 °FClear.No wind49%30.32 "Hg10 mi
2:54 AM30 °FClear.No wind43%30.32 "Hg10 mi
1:54 AM27 °FClear.No wind51%30.33 "Hg10 mi
12:54 AM31 °FClear.No wind45%30.32 "Hg10 mi
11:54 PM
Jan 28
32 °FClear.No wind40%30.34 "Hg10 mi
10:54 PM28 °FClear.No wind61%30.33 "Hg10 mi
Weather by CustomWeather, © 2014

See weather overviewHow to use our weather pages